[[{"header":{"parameterUnit":"m.s-1","parameterCategory":2,"la1":30.2991,"la2":30.254,"lo1":-89.0895,"lo2":-89.0444,"dy":0.0017,"dx":0.0017,"nx":28,"ny":28,"refTime":"2023-07-28T03:00:00:Z","depth":"0","parameterNumber":2,"parameterNumberName":"U-component_of_CURRENTS"},"data":[0,0,0,0,0,0,0,0,0,0,0,0,0,0,0,0,0,0,0,0,0,0,0,0,0,0,0,0,0,0,0,0,0,0,0,0,0,0,0,0,0,0,0,0,0,0,0,0,0,0,0,0,0,0,0,0,0,0,-0.0638,-0.0638,0,-0.0656,-0.0657,-0.0657,-0.0882,-0.0887,-0.0893,-0.0898,-0.11,-0.11,-0.11,0,0,0,0,0,0,0,0,0,0,0,0,0,-0.0736,-0.0733,-0.0638,-0.0638,-0.0638,-0.0656,-0.0657,-0.0657,-0.0881,-0.0887,-0.0894,-0.0901,-0.1099,-0.11,-0.11,0,0,0,0,0,0,0,0,0,0,0,0,0,-0.0719,-0.0732,-0.0638,-0.0751,-0.0761,-0.0656,-0.0657,-0.0657,-0.0879,-0.0888,-0.0896,-0.0904,-0.1099,-0.11,-0.11,-0.0936,0,0,-0.1101,-0.1101,0,0,0,0,0,0,0,0,-0.072,-0.0715,-0.0734,-0.0743,-0.0754,-0.0774,-0.0765,-0.0759,-0.0877,-0.0836,-0.0898,-0.0908,-0.1,-0.1009,-0.0994,-0.0945,-0.0954,-0.1101,-0.1101,-0.1101,-0.1101,0,0,0,0,0,0,0,-0.0721,-0.0715,-0.0647,-0.0734,-0.0746,-0.078,-0.0787,-0.0764,-0.0876,-0.084,-0.0856,-0.0853,-0.1009,-0.0993,-0.1001,-0.0957,-0.1101,-0.1101,-0.1101,-0.1102,-0.0587,-0.0574,0,0,0,0,0,0,-0.0708,-0.0715,-0.0646,-0.0647,-0.0755,-0.0771,-0.078,-0.076,-0.0873,-0.0896,-0.0846,-0.0863,-0.0988,-0.1,-0.1009,-0.0686,-0.1101,-0.1102,-0.1102,-0.0601,-0.0584,-0.0569,0,0,0,0,0,0,-0.071,-0.0701,-0.0646,-0.0683,-0.0679,-0.0761,-0.0737,-0.0756,-0.0747,-0.0875,-0.0904,-0.0819,-0.0995,-0.1009,-0.0925,-0.0703,-0.1102,-0.1102,-0.0617,-0.0596,-0.0577,-0.0129,0,0,0,0,0,0,-0.0712,-0.0701,-0.0665,-0.0681,-0.0676,-0.0531,-0.073,-0.0751,-0.0731,-0.0755,-0.0859,-0.0887,-0.1003,-0.0922,-0.0925,-0.0711,-0.1102,-0.0635,-0.0608,-0.0583,-0.0161,-0.0095,-0.0039,0,0,0,0,0,-0.0715,-0.0597,-0.0663,-0.0654,-0.0629,-0.0524,-0.0519,-0.0612,-0.0721,-0.0648,-0.0714,-0.0884,-0.0758,-0.0912,-0.0918,-0.0699,-0.0647,-0.0615,-0.0585,-0.0189,-0.0108,-0.0041,0,0,0,0,0,0,-0.0579,-0.0609,-0.0682,-0.0574,-0.0542,-0.0561,-0.049,-0.0562,-0.0551,-0.0584,-0.0746,-0.0768,-0.0582,-0.0676,-0.0843,-0.0454,-0.0711,-0.0679,-0.0406,-0.0332,-0.0272,-0.0289,-0.1102,0,0,0,0,0,-0.0538,-0.0484,-0.0504,-0.0403,-0.0382,-0.0433,-0.0403,-0.0454,-0.0456,-0.0465,-0.053,-0.0538,-0.0438,-0.0433,-0.038,-0.0205,-0.025,-0.0043,0.0018,0.0069,0.0069,0.0257,0.0332,-0.0467,-0.0467,-0.0468,0,0,-0.0454,-0.046,-0.0429,-0.0375,-0.0367,-0.0264,-0.0433,-0.0337,-0.0242,-0.0476,-0.0344,-0.0327,-0.0332,-0.0113,-0.0037,-0.0191,0.0294,0.0109,0.0151,0.0121,0.0297,0.0374,0.0441,-0.0446,-0.045,-0.0453,0,0,-0.0234,-0.0258,-0.015,-0.0118,-0.0083,-0.0089,-0.005,-0.0036,-0.0021,0.012,0.0036,0.0189,0.0244,0.0334,0.0376,0.0821,0.0633,0.0853,0.1107,0.1295,0.1359,0.1414,0.1505,0.1564,0.0855,0.0856,0.0857,0,-0.0126,-0.003,-0.0081,0.0028,0.0071,0.0002,0.0139,0.0205,0.0249,0.0304,0.0214,0.0471,0.0484,0.0783,0.0961,0.0958,0.0967,0.0805,0.1366,0.1419,0.1468,0.1546,0.1606,0.0882,0.0879,0.0876,0.0874,0,0.0153,0.021,0.0308,0.0383,0.0448,0.0581,0.0613,0.0704,0.07,0.0732,0.1001,0.1072,0.1178,0.1311,0.1261,0.167,0.1538,0.1434,0.1147,0.1574,0.1632,0.1686,0.0918,0.0909,0.0901,0.0895,0,0,0.0476,0.0485,0.0518,0.0541,0.0626,0.0713,0.0907,0.106,0.1162,0.1297,0.1468,0.179,0.1758,0.1816,0.1838,0.2043,0.2466,0.1897,0.1895,0.1928,0.2817,0.2705,0.2748,0.2433,0.2444,0.2453,0.2731,0,0.0717,0.0893,0.0859,0.1063,0.1159,0.1122,0.1293,0.1409,0.1488,0.1647,0.1809,0.1993,0.1971,0.2045,0.2279,0.2378,0.2621,0.2394,0.2445,0.2446,0.2248,0.2815,0.2783,0.3026,0.2781,0.279,0.2796,0,0.1032,0.1077,0.1263,0.1302,0.1347,0.1463,0.1627,0.1757,0.1947,0.2001,0.2187,0.2227,0.2566,0.2473,0.2888,0.272,0.2843,0.2931,0.294,0.2694,0.2437,0.2561,0.3129,0.3086,0.2876,0.2869,0.2864,0,0.1266,0.1381,0.1501,0.153,0.1594,0.1677,0.1728,0.1882,0.1979,0.2203,0.2269,0.2585,0.2706,0.2962,0.3101,0.3022,0.3489,0.3372,0.3411,0.3395,0.3308,0.3267,0.3782,0.3766,0.3765,0.3764,0.3764,0,0.1538,0.1646,0.1598,0.167,0.1812,0.1814,0.199,0.2058,0.2195,0.2315,0.244,0.2585,0.2841,0.3059,0.3218,0.3464,0.3582,0.3578,0.3536,0.3471,0.3443,0.3329,0.3237,0.3774,0.3772,0.377,0.3769,0,0.176,0.175,0.1865,0.1898,0.1913,0.2002,0.2046,0.2145,0.2256,0.2404,0.247,0.2658,0.2912,0.3129,0.3505,0.3575,0.378,0.3891,0.3742,0.3682,0.3637,0.3567,0.3732,0.3699,0.4033,0.4033,0.4033,0,0.1859,0.1946,0.1978,0.1991,0.1992,0.2077,0.2114,0.2189,0.2248,0.2428,0.2493,0.2751,0.2905,0.3353,0.3589,0.389,0.3804,0.3995,0.391,0.3767,0.3661,0.3411,0.3353,0.3993,0.3992,0.3992,0.3992,0,0.1998,0.2012,0.2035,0.2067,0.2094,0.213,0.2168,0.2223,0.2293,0.241,0.2536,0.2678,0.3044,0.3316,0.3654,0.3841,0.3839,0.3992,0.3972,0.3836,0.3482,0.3376,0.3576,0.399,0.399,0.399,0.399,0.399,0.2026,0.2049,0.2046,0.208,0.2101,0.2117,0.2135,0.217,0.2252,0.234,0.2491,0.2643,0.3036,0.3503,0.3654,0.3905,0.3821,0.396,0.3937,0.373,0.3597,0.3738,0.3992,0.3992,0.3992,0.3992,0.3992,0,0.1988,0.1999,0.2032,0.2035,0.2034,0.2072,0.2102,0.2097,0.2132,0.2264,0.2368,0.2678,0.3076,0.3406,0.3854,0.3889,0.3752,0.3883,0.3628,0.3617,0.3927,0.3823,0.3898,0.3898,0.3898,0.3898,0.3899,0.3899,0.1944,0.1941,0.1961,0.193,0.1939,0.1909,0.1909,0.1934,0.2007,0.2119,0.2238,0.2363,0.2784,0.3464,0.3807,0.3837,0.3668,0.354,0.3518,0.3817,0.3822,0.3828,0.3721,0.3774,0.3774,0.3134,0.3129,0.3126]},{"header":{"parameterUnit":"m.s-1","parameterCategory":2,"la1":30.2991,"la2":30.254,"lo1":-89.0895,"lo2":-89.0444,"dy":0.0017,"dx":0.0017,"nx":28,"ny":28,"refTime":"2023-07-28T03:00:00:Z","depth":"0","parameterNumber":3,"parameterNumberName":"V-component_of_CURRENTS"},"data":[0,0,0,0,0,0,0,0,0,0,0,0,0,0,0,0,0,0,0,0,0,0,0,0,0,0,0,0,0,0,0,0,0,0,0,0,0,0,0,0,0,0,0,0,0,0,0,0,0,0,0,0,0,0,0,0,0,0,-0.0009,-0.0008,0,0.0012,0.0012,0.0013,-0.0026,-0.0027,-0.0028,-0.003,-0.0013,-0.0011,-0.0009,0,0,0,0,0,0,0,0,0,0,0,0,0,-0.003,-0.003,-0.0009,-0.0008,-0.0008,0.0012,0.0012,0.0013,-0.0026,-0.0027,-0.0029,-0.003,-0.0013,-0.0011,-0.0009,0,0,0,0,0,0,0,0,0,0,0,0,0,-0.0016,-0.003,-0.0009,-0.0025,-0.0026,0.0012,0.0012,0.0013,-0.0025,-0.0027,-0.0029,-0.0031,-0.0014,-0.0011,-0.0009,0.0047,0,0,-0.0001,0.0,0,0,0,0,0,0,0,0,-0.0017,-0.0015,-0.0023,-0.0024,-0.0025,-0.0012,0.0011,0.0024,-0.0025,-0.0025,-0.003,-0.0032,-0.0011,-0.0009,-0.0,0.0047,0.0048,-0.0001,0.0001,0.0002,0.0003,0,0,0,0,0,0,0,-0.0018,-0.0016,0.0,-0.0023,-0.0024,-0.0016,-0.0017,0.0013,-0.0007,-0.0025,-0.0028,-0.0026,-0.0012,-0.0003,-0.0,0.0048,-0.0001,0.0001,0.0003,0.0004,0.0142,0.0144,0,0,0,0,0,0,-0.0022,-0.0017,-0.0001,0.0001,-0.0026,-0.0014,-0.0015,-0.0014,-0.0007,-0.0009,-0.0024,-0.0028,-0.0006,-0.0003,0.0,0.0111,0.0002,0.0004,0.0006,0.014,0.0143,0.0145,0,0,0,0,0,0,-0.0022,-0.002,-0.0001,-0.0008,-0.0005,-0.0012,-0.001,-0.0012,-0.0005,-0.0007,-0.0008,-0.0016,-0.0007,-0.0003,0.0029,0.0109,0.0005,0.0008,0.0138,0.0141,0.0144,0.0303,0,0,0,0,0,0,-0.0023,-0.0021,-0.0017,-0.0008,-0.0005,0.0043,-0.0009,-0.0011,-0.0001,-0.0005,0.0001,-0.0,-0.0009,0.0026,0.0032,0.0111,0.001,0.0135,0.0139,0.0143,0.0295,0.0312,0.0326,0,0,0,0,0,-0.0024,0.0007,-0.0017,-0.0015,-0.0001,0.0045,0.005,0.0037,0.0001,0.003,0.0016,-0.0,0.0056,0.003,0.0036,0.0118,0.0133,0.0138,0.0143,0.0289,0.0308,0.0325,0,0,0,0,0,0,0.0014,0.0005,-0.002,0.0007,0.0027,0.0039,0.0063,0.0046,0.0059,0.005,0.0027,0.0029,0.0088,0.0073,0.0044,0.0165,0.0093,0.0099,0.0202,0.022,0.0235,0.0301,0.0012,0,0,0,0,0,0.0019,0.0027,0.0031,0.0054,0.0064,0.006,0.0074,0.0072,0.0081,0.0083,0.0081,0.0085,0.0118,0.014,0.0157,0.0229,0.0217,0.0282,0.0297,0.031,0.0366,0.0396,0.042,0.0161,0.0161,0.0161,0,0,0.0043,0.0035,0.0042,0.0061,0.0068,0.0128,0.0065,0.0105,0.0163,0.0087,0.0154,0.0137,0.0143,0.022,0.0247,0.0218,0.0372,0.0316,0.0328,0.0378,0.0404,0.043,0.0452,0.0164,0.0164,0.0163,0,0,0.0121,0.0086,0.0131,0.0151,0.0171,0.018,0.0194,0.0212,0.0226,0.0284,0.0247,0.0286,0.0312,0.0359,0.0379,0.0492,0.0443,0.0474,0.0624,0.0652,0.0674,0.0694,0.069,0.0708,0.0491,0.0492,0.0492,0,0.0157,0.02,0.0159,0.0216,0.0247,0.021,0.0293,0.0319,0.0347,0.0382,0.0325,0.0405,0.0403,0.0533,0.057,0.0539,0.0514,0.0556,0.0675,0.0695,0.0712,0.0703,0.0721,0.05,0.0499,0.0498,0.0497,0,0.0278,0.0309,0.0343,0.0392,0.0425,0.0488,0.0511,0.0547,0.0538,0.0565,0.0657,0.0652,0.0702,0.0709,0.0682,0.0819,0.0745,0.0682,0.0636,0.0749,0.073,0.0746,0.0512,0.0509,0.0506,0.0504,0,0,0.0385,0.0424,0.0437,0.0471,0.052,0.0562,0.066,0.075,0.0819,0.0843,0.0946,0.1015,0.0985,0.1008,0.0976,0.1021,0.1112,0.0916,0.0913,0.0926,0.1143,0.1096,0.1107,0.1049,0.1053,0.1057,0.1072,0,0.0505,0.0615,0.0618,0.074,0.0798,0.0795,0.0891,0.0956,0.099,0.1072,0.1102,0.1173,0.1107,0.1123,0.117,0.112,0.1165,0.1113,0.1023,0.1021,0.0978,0.113,0.1157,0.1175,0.1087,0.109,0.1092,0,0.0637,0.0682,0.0808,0.0884,0.0915,0.0989,0.1099,0.1178,0.1281,0.131,0.1387,0.1373,0.1476,0.1368,0.1407,0.1359,0.1291,0.1244,0.1241,0.117,0.1008,0.1052,0.1206,0.0985,0.1115,0.1114,0.1112,0,0.0702,0.0821,0.091,0.0939,0.103,0.1093,0.1151,0.1252,0.1328,0.1451,0.1501,0.1594,0.1617,0.1592,0.1506,0.1447,0.1511,0.1399,0.1305,0.1297,0.1299,0.1285,0.1255,0.145,0.145,0.145,0.145,0,0.0809,0.0881,0.0941,0.0982,0.1103,0.1148,0.1283,0.1351,0.1471,0.1573,0.1611,0.1701,0.1669,0.1679,0.1589,0.1521,0.1573,0.1396,0.1334,0.1348,0.1339,0.1124,0.1031,0.145,0.145,0.145,0.145,0,0.0846,0.0892,0.0986,0.1086,0.1122,0.1195,0.1322,0.1414,0.152,0.1648,0.1689,0.1792,0.1825,0.1781,0.1742,0.1614,0.1438,0.1508,0.1518,0.1459,0.1137,0.1053,0.0929,0.0817,0.1414,0.1414,0.1413,0,0.0867,0.0917,0.102,0.1065,0.1106,0.1214,0.1289,0.142,0.1512,0.1697,0.176,0.1857,0.1938,0.1892,0.175,0.1638,0.1442,0.1519,0.1438,0.1191,0.1051,0.0882,0.0784,0.1482,0.1482,0.1482,0.1482,0,0.0889,0.0919,0.0974,0.1066,0.1143,0.1248,0.1363,0.1444,0.1597,0.1715,0.187,0.1963,0.197,0.1949,0.1809,0.1677,0.1348,0.1512,0.1282,0.1167,0.0963,0.0799,0.1354,0.1483,0.1483,0.1483,0.1483,0.1483,0.0877,0.0912,0.0975,0.1065,0.1154,0.1267,0.1353,0.1478,0.1628,0.182,0.1915,0.2089,0.2129,0.1981,0.1688,0.1292,0.1297,0.1197,0.1133,0.0991,0.0857,0.1404,0.1435,0.1435,0.1435,0.1434,0.1434,0,0.0857,0.0899,0.0973,0.1081,0.1171,0.1236,0.1393,0.1491,0.1642,0.1857,0.2012,0.2265,0.2116,0.1885,0.1499,0.105,0.0755,0.0842,0.0633,0.0563,0.1095,0.1069,0.0992,0.0992,0.0992,0.0992,0.0993,0.0993,0.0844,0.0893,0.094,0.1067,0.1149,0.1284,0.1371,0.1525,0.1707,0.2021,0.2267,0.2469,0.2527,0.1676,0.0949,0.0724,0.0304,0.0251,0.0052,0.0438,0.0464,0.0489,0.044,0.0232,0.0231,-0.0499,-0.0505,-0.0509]}],[{"header":{"parameterUnit":"m.s-1","parameterCategory":2,"la1":30.2991,"la2":30.254,"lo1":-89.0895,"lo2":-89.0444,"dy":0.0017,"dx":0.0017,"nx":28,"ny":28,"refTime":"2023-07-28T03:00:00:Z","depth":"2","parameterNumber":2,"parameterNumberName":"U-component_of_CURRENTS"},"data":[0,0,0,0,0,0,0,0,0,0,0,0,0,0,0,0,0,0,0,0,0,0,0,0,0,0,0,0,0,0,0,0,0,0,0,0,0,0,0,0,0,0,0,0,0,0,0,0,0,0,0,0,0,0,0,0,0,0,-0.0342,-0.0343,0,-0.041,-0.041,-0.0411,-0.046,-0.046,-0.0461,-0.0462,-0.0413,-0.0411,-0.041,0,0,0,0,0,0,0,0,0,0,0,0,0,-0.0252,-0.0253,-0.0342,-0.0343,-0.0344,-0.0409,-0.041,-0.0411,-0.046,-0.046,-0.0461,-0.0462,-0.0414,-0.0412,-0.041,0,0,0,0,0,0,0,0,0,0,0,0,0,-0.0301,-0.0253,-0.0342,-0.0377,-0.0381,-0.0409,-0.041,-0.0411,-0.046,-0.046,-0.0461,-0.0462,-0.0415,-0.0412,-0.0409,-0.0376,0,0,-0.0401,-0.04,0,0,0,0,0,0,0,0,-0.0298,-0.0304,-0.0371,-0.0375,-0.038,-0.0429,-0.0361,-0.0394,-0.0459,-0.0428,-0.0462,-0.0463,-0.0408,-0.0406,-0.0416,-0.0374,-0.0372,-0.0401,-0.0399,-0.0398,-0.0397,0,0,0,0,0,0,0,-0.0294,-0.0301,-0.0367,-0.0372,-0.0377,-0.0389,-0.0396,-0.0368,-0.0409,-0.0431,-0.0435,-0.0445,-0.0409,-0.0419,-0.0415,-0.0371,-0.0401,-0.0398,-0.0397,-0.0396,-0.0197,-0.0194,0,0,0,0,0,0,-0.0289,-0.0298,-0.0365,-0.0369,-0.0342,-0.039,-0.0398,-0.0411,-0.0412,-0.0415,-0.0444,-0.0447,-0.0423,-0.0418,-0.0413,-0.0308,-0.0398,-0.0395,-0.0394,-0.0201,-0.0196,-0.0193,0,0,0,0,0,0,-0.0286,-0.0294,-0.0362,-0.0336,-0.0346,-0.0391,-0.0404,-0.0412,-0.0416,-0.0424,-0.0424,-0.044,-0.0423,-0.0417,-0.0372,-0.0309,-0.0394,-0.0392,-0.0205,-0.02,-0.0195,-0.0139,0,0,0,0,0,0,-0.0283,-0.0293,-0.0301,-0.0336,-0.0347,-0.0367,-0.0404,-0.0412,-0.0422,-0.0426,-0.042,-0.0417,-0.0424,-0.0376,-0.0369,-0.0307,-0.039,-0.021,-0.0203,-0.0196,-0.0146,-0.0133,-0.0121,0,0,0,0,0,-0.028,-0.0285,-0.0301,-0.0309,-0.0357,-0.0367,-0.0372,-0.0406,-0.042,-0.0414,-0.0405,-0.0417,-0.0326,-0.0372,-0.0365,-0.03,-0.0213,-0.0205,-0.0197,-0.0151,-0.0135,-0.0122,0,0,0,0,0,0,-0.0252,-0.0292,-0.031,-0.0328,-0.0341,-0.0375,-0.038,-0.0395,-0.0387,-0.0384,-0.039,-0.0386,-0.0315,-0.0309,-0.0358,-0.0216,-0.0262,-0.0252,-0.023,-0.0215,-0.0203,-0.0205,-0.0387,0,0,0,0,0,-0.0249,-0.0264,-0.0294,-0.0307,-0.0311,-0.034,-0.035,-0.0363,-0.0365,-0.0365,-0.0353,-0.0321,-0.0274,-0.0251,-0.0215,-0.0149,-0.017,-0.0092,-0.008,-0.007,-0.0061,-0.0031,-0.0018,-0.0166,-0.0166,-0.0166,0,0,-0.0244,-0.0267,-0.0277,-0.0302,-0.0318,-0.0313,-0.0347,-0.0349,-0.0332,-0.0354,-0.0312,-0.0282,-0.0247,-0.0173,-0.0138,-0.0163,-0.0042,-0.006,-0.0052,-0.0049,-0.0022,-0.0008,0.0004,-0.016,-0.0161,-0.0162,0,0,-0.0226,-0.0256,-0.0254,-0.0262,-0.0277,-0.0289,-0.0282,-0.0292,-0.0283,-0.024,-0.0236,-0.0176,-0.0117,-0.0079,-0.0052,0.0054,0.002,0.0089,0.0146,0.0176,0.0186,0.0196,0.0155,0.016,0.0096,0.0096,0.0096,0,-0.0221,-0.0227,-0.0252,-0.0247,-0.0252,-0.0271,-0.0256,-0.0245,-0.0233,-0.0206,-0.0212,-0.0098,-0.0071,0.0022,0.0069,0.008,0.0067,0.0076,0.0186,0.0196,0.0204,0.016,0.0166,0.01,0.0099,0.0099,0.0098,0,-0.0195,-0.0202,-0.0199,-0.0203,-0.0201,-0.0194,-0.0185,-0.0157,-0.014,-0.0125,-0.0029,0.0011,0.008,0.0118,0.0127,0.023,0.0188,0.0189,0.0134,0.0222,0.017,0.0175,0.0105,0.0103,0.0102,0.0101,0,0,-0.0193,-0.0183,-0.0186,-0.018,-0.0179,-0.0176,-0.0128,-0.0091,-0.0053,-0.0002,0.0057,0.0164,0.0191,0.0227,0.0259,0.0298,0.0344,0.0284,0.0283,0.0214,0.0363,0.041,0.0418,0.0365,0.0367,0.0369,0.0287,0,-0.0172,-0.0151,-0.0148,-0.0126,-0.0118,-0.011,-0.0067,-0.0029,0.0012,0.007,0.0137,0.0209,0.0232,0.0279,0.0329,0.0344,0.0366,0.0363,0.0313,0.0311,0.032,0.043,0.0446,0.0384,0.0291,0.0291,0.0292,0,-0.0158,-0.0147,-0.0118,-0.0091,-0.0084,-0.0064,-0.0008,0.0032,0.011,0.0151,0.0233,0.0271,0.0359,0.0359,0.0415,0.0413,0.0406,0.04,0.0397,0.0429,0.037,0.0293,0.0395,0.0298,0.0298,0.0297,0.0297,0,-0.0161,-0.0134,-0.0109,-0.0106,-0.0069,-0.0039,-0.0009,0.0059,0.01,0.02,0.0234,0.0334,0.0373,0.041,0.0426,0.0425,0.0449,0.0432,0.045,0.0448,0.0449,0.0446,0.0469,0.0469,0.0469,0.0469,0.047,0,-0.0161,-0.0147,-0.0109,-0.0103,-0.0062,-0.0033,0.0025,0.0076,0.0147,0.0203,0.0277,0.0334,0.0396,0.042,0.043,0.0461,0.045,0.0482,0.0462,0.0468,0.0469,0.0391,0.0383,0.0466,0.0467,0.0467,0.0468,0,-0.0182,-0.0157,-0.0134,-0.0086,-0.0069,-0.0041,0.0019,0.0067,0.0133,0.0202,0.0235,0.0323,0.0384,0.0409,0.0444,0.0458,0.0479,0.0481,0.0457,0.0441,0.0438,0.0434,0.0495,0.0497,0.0498,0.0499,0.05,0,-0.0191,-0.0179,-0.0134,-0.0112,-0.0092,-0.0047,-0.0009,0.0057,0.0099,0.02,0.0229,0.0309,0.0398,0.0451,0.051,0.0532,0.0499,0.0526,0.0568,0.0483,0.0455,0.0449,0.0444,0.0546,0.0547,0.0548,0.0549,0,-0.0206,-0.0188,-0.0162,-0.0117,-0.0084,-0.0046,0.0006,0.0033,0.0119,0.0186,0.0287,0.0367,0.0457,0.0554,0.0592,0.0592,0.054,0.0552,0.0486,0.0567,0.0534,0.0506,0.0498,0.0559,0.0558,0.0557,0.0557,0.0556,-0.0214,-0.0195,-0.015,-0.0107,-0.0072,-0.0026,0.0014,0.0072,0.0151,0.027,0.0317,0.0449,0.0511,0.0636,0.0635,0.063,0.0648,0.0619,0.0614,0.0608,0.066,0.0636,0.0682,0.0682,0.0682,0.0682,0.0682,0,-0.0203,-0.0171,-0.0133,-0.0072,-0.0026,-0.0017,0.0043,0.0098,0.0201,0.0315,0.0424,0.0495,0.0607,0.0641,0.0693,0.071,0.0664,0.0655,0.0611,0.0605,0.0598,0.0646,0.0666,0.0665,0.0664,0.0664,0,0,-0.0191,-0.0142,-0.0111,-0.0028,0.0006,0.0062,0.0098,0.0181,0.0272,0.0397,0.049,0.0598,0.067,0.0671,0.0686,0.0698,0.0626,0.0663,0.0687,0.0632,0.0624,0.0604,0.0676,0,0,0,0,0]},{"header":{"parameterUnit":"m.s-1","parameterCategory":2,"la1":30.2991,"la2":30.254,"lo1":-89.0895,"lo2":-89.0444,"dy":0.0017,"dx":0.0017,"nx":28,"ny":28,"refTime":"2023-07-28T03:00:00:Z","depth":"2","parameterNumber":3,"parameterNumberName":"V-component_of_CURRENTS"},"data":[0,0,0,0,0,0,0,0,0,0,0,0,0,0,0,0,0,0,0,0,0,0,0,0,0,0,0,0,0,0,0,0,0,0,0,0,0,0,0,0,0,0,0,0,0,0,0,0,0,0,0,0,0,0,0,0,0,0,-0.0517,-0.0516,0,-0.0395,-0.0393,-0.0392,-0.0286,-0.0284,-0.0283,-0.0282,-0.0151,-0.0149,-0.0147,0,0,0,0,0,0,0,0,0,0,0,0,0,-0.0635,-0.0634,-0.0517,-0.0516,-0.0514,-0.0395,-0.0393,-0.0392,-0.0286,-0.0284,-0.0283,-0.0282,-0.0152,-0.0149,-0.0146,0,0,0,0,0,0,0,0,0,0,0,0,0,-0.0556,-0.0633,-0.0517,-0.0447,-0.044,-0.0395,-0.0393,-0.0391,-0.0286,-0.0284,-0.0283,-0.0281,-0.0153,-0.015,-0.0146,-0.0159,0,0,-0.0135,-0.0134,0,0,0,0,0,0,0,0,-0.056,-0.0551,-0.0459,-0.0452,-0.0444,-0.0354,-0.0387,-0.0313,-0.0287,-0.0344,-0.0282,-0.028,-0.022,-0.0211,-0.0191,-0.0153,-0.0147,-0.0135,-0.0133,-0.0131,-0.013,0,0,0,0,0,0,0,-0.0566,-0.0556,-0.0468,-0.0458,-0.0448,-0.0414,-0.0401,-0.0372,-0.0293,-0.0339,-0.0331,-0.0319,-0.0215,-0.0195,-0.0187,-0.0145,-0.0135,-0.0132,-0.013,-0.0128,0.0023,0.0025,0,0,0,0,0,0,-0.0585,-0.0561,-0.0472,-0.0465,-0.0499,-0.0414,-0.0399,-0.0384,-0.0293,-0.0278,-0.032,-0.0314,-0.0202,-0.0192,-0.0182,-0.0099,-0.0131,-0.0128,-0.0126,0.0021,0.0024,0.0026,0,0,0,0,0,0,-0.0588,-0.0578,-0.0477,-0.0511,-0.0495,-0.0414,-0.0398,-0.0383,-0.0334,-0.0279,-0.0263,-0.0284,-0.02,-0.0187,-0.0124,-0.0096,-0.0126,-0.0123,0.0019,0.0022,0.0025,0.0008,0,0,0,0,0,0,-0.0592,-0.058,-0.0574,-0.0512,-0.0494,-0.0436,-0.0399,-0.0382,-0.0331,-0.0321,-0.0244,-0.0231,-0.0198,-0.0129,-0.012,-0.0092,-0.012,0.0017,0.002,0.0024,0.0006,0.001,0.0013,0,0,0,0,0,-0.0597,-0.0586,-0.0575,-0.0564,-0.0489,-0.0435,-0.0423,-0.0359,-0.0331,-0.0309,-0.0248,-0.0232,-0.01,-0.0126,-0.0115,-0.0085,0.0015,0.0019,0.0023,0.0005,0.0009,0.0013,0,0,0,0,0,0,-0.0623,-0.0573,-0.0559,-0.0531,-0.0485,-0.0417,-0.0388,-0.0353,-0.0289,-0.027,-0.0219,-0.0202,-0.0135,-0.0107,-0.0136,-0.0027,-0.0036,-0.003,-0.0053,-0.0049,-0.0045,-0.0066,-0.0117,0,0,0,0,0,-0.0634,-0.0617,-0.0563,-0.054,-0.0516,-0.0454,-0.0423,-0.038,-0.0319,-0.0287,-0.0231,-0.0167,-0.0116,-0.008,-0.0032,0.0017,-0.0,0.005,0.0053,0.0056,0.0049,0.0038,0.0038,0.0039,0.0039,0.0039,0,0,-0.0639,-0.0609,-0.0599,-0.0546,-0.0502,-0.0455,-0.0429,-0.0373,-0.0322,-0.0287,-0.0196,-0.0159,-0.01,-0.0035,-0.0002,-0.0004,0.0047,0.0061,0.0062,0.0054,0.0042,0.0042,0.0041,0.0042,0.0042,0.0041,0,0,-0.063,-0.0611,-0.0587,-0.055,-0.0487,-0.0449,-0.0431,-0.0353,-0.0303,-0.0231,-0.0188,-0.0142,-0.0046,-0.001,0.0021,0.0069,0.0061,0.0105,0.0108,0.0098,0.0096,0.0095,0.006,0.0055,0.0111,0.0111,0.0111,0,-0.0638,-0.0594,-0.0571,-0.053,-0.0487,-0.0444,-0.039,-0.0345,-0.0253,-0.0212,-0.0194,-0.0072,-0.0038,0.0028,0.0049,0.0072,0.0061,0.0081,0.0097,0.0095,0.0094,0.0058,0.0053,0.0111,0.0111,0.0111,0.0111,0,-0.0596,-0.0564,-0.0541,-0.0479,-0.0436,-0.0384,-0.0321,-0.0268,-0.0211,-0.0166,-0.0084,-0.0045,0.0025,0.0046,0.0062,0.0088,0.0079,0.0091,0.0072,0.0092,0.0054,0.0049,0.011,0.011,0.0111,0.0111,0,0,-0.0598,-0.0527,-0.0516,-0.0476,-0.0398,-0.0353,-0.028,-0.02,-0.0144,-0.0083,-0.0018,0.0043,0.005,0.0084,0.0104,0.0091,0.0056,0.0089,0.0088,0.0028,0.0017,-0.0083,-0.0098,0.0072,0.0072,0.0071,-0.0012,0,-0.0562,-0.0493,-0.0455,-0.0372,-0.0324,-0.0266,-0.0199,-0.0129,-0.0071,-0.0007,0.0017,0.008,0.0072,0.01,0.0085,0.0071,0.0046,0.0076,0.003,0.0028,-0.0085,-0.0106,-0.0087,-0.0167,-0.0017,-0.0018,-0.0018,0,-0.0514,-0.0475,-0.0395,-0.0307,-0.0276,-0.0215,-0.0102,-0.0039,0.0033,0.0075,0.011,0.0125,0.0124,0.0112,0.0065,0.0088,0.0049,0.0021,0.0018,-0.0075,-0.0081,-0.0155,-0.0182,-0.0027,-0.0026,-0.0025,-0.0025,0,-0.051,-0.0423,-0.0358,-0.0325,-0.0227,-0.0161,-0.0093,-0.0004,0.0048,0.0117,0.0135,0.0152,0.0145,0.011,0.0032,0.0059,-0.0048,-0.0011,-0.0142,-0.015,-0.0145,-0.0153,-0.0058,-0.0058,-0.0058,-0.0057,-0.0057,0,-0.0477,-0.0421,-0.0345,-0.0307,-0.0209,-0.0138,-0.0033,0.0033,0.0102,0.0137,0.0168,0.016,0.0141,0.0076,0.0028,-0.0103,-0.0056,-0.0165,-0.0183,-0.0151,-0.0158,-0.0034,-0.003,-0.006,-0.006,-0.0059,-0.0059,0,-0.0468,-0.0426,-0.0347,-0.0243,-0.0204,-0.0124,-0.0008,0.0046,0.0113,0.0148,0.016,0.0151,0.0062,0.0007,-0.0075,-0.0135,-0.0225,-0.028,-0.0265,-0.0281,-0.0312,-0.0307,-0.0414,-0.0419,-0.0422,-0.0425,-0.0428,0,-0.0452,-0.0416,-0.0314,-0.0265,-0.0205,-0.0099,-0.0037,0.0052,0.0083,0.0118,0.0109,0.005,-0.0024,-0.0195,-0.0275,-0.0388,-0.0355,-0.0467,-0.0417,-0.0345,-0.0351,-0.034,-0.0331,-0.0409,-0.0411,-0.0413,-0.0414,0,-0.0421,-0.0387,-0.033,-0.0247,-0.017,-0.0104,-0.0019,-0.0006,0.0063,0.0067,0.0025,-0.0029,-0.0172,-0.0292,-0.0446,-0.0511,-0.0442,-0.0513,-0.0431,-0.0339,-0.0351,-0.0353,-0.0342,-0.0431,-0.0429,-0.0428,-0.0427,-0.0426,-0.0391,-0.0356,-0.0294,-0.0209,-0.0143,-0.0106,-0.007,-0.0038,-0.002,-0.0012,-0.007,-0.0111,-0.0227,-0.0412,-0.0527,-0.06,-0.06,-0.061,-0.0598,-0.0586,-0.0588,-0.0608,-0.0737,-0.0737,-0.0737,-0.0737,-0.0737,0,-0.0354,-0.0321,-0.0258,-0.0177,-0.013,-0.0087,-0.006,-0.0055,-0.0068,-0.006,-0.0102,-0.0179,-0.0329,-0.0408,-0.0536,-0.0668,-0.06,-0.0692,-0.056,-0.0548,-0.0536,-0.0527,-0.0663,-0.0663,-0.0662,-0.0662,0,0,-0.033,-0.028,-0.0262,-0.018,-0.0125,-0.0083,-0.0078,-0.0092,-0.0086,-0.0088,-0.0066,-0.0148,-0.0275,-0.0347,-0.0511,-0.0571,-0.0522,-0.0583,-0.0643,-0.0461,-0.0445,-0.0506,-0.0485,0,0,0,0,0]}],[{"header":{"parameterUnit":"m.s-1","parameterCategory":2,"la1":30.2991,"la2":30.254,"lo1":-89.0895,"lo2":-89.0444,"dy":0.0017,"dx":0.0017,"nx":28,"ny":28,"refTime":"2023-07-28T03:00:00:Z","depth":"4","parameterNumber":2,"parameterNumberName":"U-component_of_CURRENTS"},"data":[0,0,0,0,0,0,0,0,0,0,0,0,0,0,0,0,0,0,0,0,0,0,0,0,0,0,0,0,0,0,0,0,0,0,0,0,0,0,0,0,0,0,0,0,0,0,0,0,0,0,0,0,0,0,0,0,0,0,-0.0017,-0.0017,0,-0.0005,-0.0005,-0.0005,0.0016,0.0016,0.0016,0.0017,0.0024,0.0024,0.0024,0,0,0,0,0,0,0,0,0,0,0,0,0,-0.0018,-0.0018,-0.0017,-0.0017,-0.0017,-0.0005,-0.0005,-0.0004,0.0016,0.0016,0.0016,0.0017,0.0024,0.0024,0.0024,0,0,0,0,0,0,0,0,0,0,0,0,0,-0.0012,-0.0018,-0.0017,-0.0007,-0.0006,-0.0005,-0.0005,-0.0004,0.0016,0.0016,0.0016,0.0017,0.0024,0.0024,0.0024,0.0015,0,0,0.0023,0.0023,0,0,0,0,0,0,0,0,-0.0012,-0.0012,-0.0008,-0.0007,-0.0006,0.0003,-0.0003,0.0001,0.0016,0.0009,0.0017,0.0017,0.0015,0.0016,0.0019,0.0016,0.0016,0.0023,0.0023,0.0023,0.0023,0,0,0,0,0,0,0,-0.0013,-0.0012,-0.0011,-0.0008,-0.0007,-0.0001,0.0001,-0.0002,0.001,0.0009,0.0011,0.001,0.0016,0.0019,0.0019,0.0016,0.0023,0.0023,0.0023,0.0023,-0.0014,-0.0015,0,0,0,0,0,0,-0.0018,-0.0013,-0.0012,-0.0011,-0.001,-0.0001,0.0,0.0001,0.0011,0.0012,0.001,0.0011,0.0019,0.0019,0.002,0.0014,0.0023,0.0023,0.0023,-0.0013,-0.0014,-0.0015,0,0,0,0,0,0,-0.0018,-0.0018,-0.0012,-0.0013,-0.0012,-0.0002,-0.0002,0.0001,0.0009,0.0011,0.0013,0.0016,0.0019,0.002,0.0017,0.0015,0.0023,0.0023,-0.0012,-0.0013,-0.0014,0.0001,0,0,0,0,0,0,-0.0018,-0.0018,-0.0015,-0.0013,-0.0012,-0.0005,-0.0002,0.0001,0.0007,0.0009,0.0016,0.0017,0.002,0.0017,0.0017,0.0015,0.0023,-0.001,-0.0012,-0.0014,0.0001,0.0,-0.0001,0,0,0,0,0,-0.0018,-0.0017,-0.0015,-0.0015,-0.001,-0.0005,-0.0004,0.0005,0.0007,0.0014,0.0012,0.0017,0.0006,0.0017,0.0017,0.0014,-0.001,-0.0012,-0.0014,0.0002,0.0,-0.0001,0,0,0,0,0,0,-0.0014,-0.0015,-0.0013,-0.0012,-0.0006,-0.0002,0.0003,0.0006,0.001,0.0012,0.0012,0.0013,0.0005,0.0003,0.0015,-0.0006,-0.0004,-0.0006,0.0008,0.0006,0.0005,0.003,0.0023,0,0,0,0,0,-0.0014,-0.0015,-0.0011,-0.001,-0.0007,-0.0002,0.0001,0.0007,0.0008,0.0011,0.0014,0.0007,-0.0006,-0.0003,-0.0013,-0.0016,-0.0008,-0.0023,-0.0024,-0.0025,-0.0007,-0.0009,-0.0008,-0.0022,-0.0022,-0.0022,0,0,-0.0015,-0.0014,-0.0015,-0.001,-0.0005,0.0004,0.0002,0.0009,0.0016,0.001,0.0019,0.0003,-0.001,-0.0018,-0.0021,-0.0015,-0.0019,-0.0027,-0.0028,-0.0009,-0.0011,-0.0009,-0.0007,-0.0023,-0.0023,-0.0023,0,0,-0.0012,-0.0013,-0.0007,-0.0001,0.0007,0.0009,0.0011,0.0017,0.0021,0.0022,0.001,0.0,-0.0011,-0.0017,-0.0024,-0.0039,-0.0031,-0.0054,-0.0028,-0.0031,-0.0029,-0.0027,-0.0016,-0.0014,-0.0048,-0.0048,-0.0048,0,-0.0008,-0.0002,-0.0004,0.0008,0.0014,0.0012,0.0024,0.0026,0.003,0.0032,0.0027,0.0005,-0.0007,-0.0015,-0.0023,-0.0038,-0.0035,-0.0018,-0.0029,-0.0028,-0.0026,-0.0015,-0.0012,-0.0047,-0.0047,-0.0047,-0.0047,0,0.0002,0.0011,0.0015,0.0028,0.0035,0.0043,0.0046,0.005,0.0048,0.0049,0.004,0.0023,0.0015,-0.0003,-0.0014,-0.0017,-0.0018,-0.0034,-0.0017,-0.0023,-0.0012,-0.0009,-0.0047,-0.0047,-0.0047,-0.0047,0,0,0.0002,0.002,0.0022,0.0034,0.0047,0.0053,0.0062,0.007,0.0078,0.0073,0.0083,0.0053,0.0047,0.0038,0.0016,0.0015,0.0022,0.0,-0.0,0.0027,0.0029,0.0089,0.0098,0.0003,0.0004,0.0004,0.0032,0,0.0015,0.0037,0.0043,0.0065,0.0077,0.0081,0.009,0.0096,0.0096,0.0104,0.0088,0.0084,0.0061,0.0055,0.005,0.0026,0.003,0.0018,0.0017,0.0018,0.0085,0.0103,0.0006,0.0034,0.0035,0.0035,0.0035,0,0.0028,0.0039,0.0062,0.0084,0.0091,0.0103,0.0119,0.0128,0.0135,0.0136,0.0137,0.0125,0.0123,0.0098,0.0086,0.0079,0.0062,0.0046,0.0046,0.0106,0.0084,0.0038,0.0041,0.004,0.004,0.004,0.0039,0,0.0028,0.0055,0.0072,0.008,0.0103,0.0115,0.0126,0.0138,0.0148,0.0161,0.017,0.0165,0.0166,0.0145,0.0126,0.0102,0.012,0.0079,0.0121,0.0125,0.0056,0.0053,0.0078,0.0078,0.0078,0.0078,0.0078,0,0.0037,0.0052,0.0075,0.0084,0.0107,0.0122,0.0144,0.0155,0.0173,0.019,0.0189,0.0204,0.0177,0.0184,0.0152,0.0169,0.0144,0.0147,0.0144,0.0059,0.0056,0.0058,0.0055,0.0079,0.0079,0.0079,0.0079,0,0.0034,0.0049,0.0071,0.0097,0.0108,0.0124,0.0156,0.0169,0.0189,0.0215,0.0223,0.024,0.0262,0.025,0.023,0.0217,0.0211,0.0219,0.0159,0.0147,0.0206,0.0203,0.0265,0.0268,0.027,0.0272,0.0273,0,0.0033,0.0044,0.0077,0.0093,0.0106,0.0132,0.0148,0.0173,0.0191,0.0236,0.0251,0.0291,0.0302,0.0333,0.0314,0.0304,0.0288,0.0287,0.0225,0.0239,0.0229,0.0222,0.0217,0.0277,0.0277,0.0278,0.0279,0,0.0029,0.0043,0.006,0.0092,0.0114,0.0141,0.017,0.0186,0.0219,0.0235,0.0285,0.0312,0.0356,0.0361,0.0381,0.0354,0.0288,0.0309,0.0302,0.0244,0.0253,0.024,0.0232,0.0286,0.0285,0.0284,0.0284,0,0.0024,0.0037,0.0063,0.0093,0.0122,0.0153,0.0166,0.0203,0.0227,0.0275,0.0293,0.0335,0.0358,0.039,0.0394,0.0405,0.0378,0.0342,0.0333,0.0325,0.0334,0.0355,0.0436,0,0,0,0,0,0.0018,0.0038,0.0064,0.0105,0.0135,0.0154,0.0185,0.0197,0.0228,0.0265,0.0282,0.0323,0.0369,0.0389,0.041,0.0416,0.0374,0.0439,0.0325,0.0327,0.0319,0.0326,0,0,0,0,0,0,0.0015,0.0039,0.0062,0.011,0.014,0.0175,0.0195,0.0214,0.0239,0.0268,0.0293,0.0318,0.0361,0.0357,0.0407,0.0414,0.0341,0.0464,0.0464,0.0332,0.0324,0.0317,0.0321,0,0,0,0,0]},{"header":{"parameterUnit":"m.s-1","parameterCategory":2,"la1":30.2991,"la2":30.254,"lo1":-89.0895,"lo2":-89.0444,"dy":0.0017,"dx":0.0017,"nx":28,"ny":28,"refTime":"2023-07-28T03:00:00:Z","depth":"4","parameterNumber":3,"parameterNumberName":"V-component_of_CURRENTS"},"data":[0,0,0,0,0,0,0,0,0,0,0,0,0,0,0,0,0,0,0,0,0,0,0,0,0,0,0,0,0,0,0,0,0,0,0,0,0,0,0,0,0,0,0,0,0,0,0,0,0,0,0,0,0,0,0,0,0,0,-0.0352,-0.0353,0,-0.0387,-0.0388,-0.0389,-0.0415,-0.0415,-0.0415,-0.0415,-0.0452,-0.0454,-0.0455,0,0,0,0,0,0,0,0,0,0,0,0,0,-0.0341,-0.0341,-0.0352,-0.0353,-0.0353,-0.0387,-0.0388,-0.0389,-0.0415,-0.0415,-0.0415,-0.0415,-0.0452,-0.0453,-0.0455,0,0,0,0,0,0,0,0,0,0,0,0,0,-0.0361,-0.0341,-0.0352,-0.0367,-0.0369,-0.0387,-0.0388,-0.0389,-0.0415,-0.0415,-0.0415,-0.0415,-0.0452,-0.0453,-0.0455,-0.0467,0,0,-0.046,-0.046,0,0,0,0,0,0,0,0,-0.036,-0.0362,-0.0365,-0.0366,-0.0368,-0.0394,-0.0397,-0.0414,-0.0415,-0.0401,-0.0415,-0.0415,-0.0431,-0.0434,-0.0446,-0.0469,-0.047,-0.046,-0.0461,-0.0462,-0.0462,0,0,0,0,0,0,0,-0.0359,-0.0361,-0.037,-0.0365,-0.0367,-0.0383,-0.0386,-0.0401,-0.0419,-0.0403,-0.0404,-0.0402,-0.0432,-0.0444,-0.0447,-0.0471,-0.046,-0.0461,-0.0462,-0.0463,-0.0556,-0.0558,0,0,0,0,0,0,-0.0346,-0.0359,-0.0369,-0.0371,-0.036,-0.0383,-0.0386,-0.0388,-0.0419,-0.0422,-0.0402,-0.0403,-0.0442,-0.0445,-0.0448,-0.0503,-0.0462,-0.0463,-0.0464,-0.0555,-0.0557,-0.0558,0,0,0,0,0,0,-0.0345,-0.0346,-0.0367,-0.0363,-0.0366,-0.0383,-0.0385,-0.0389,-0.0411,-0.0418,-0.0422,-0.042,-0.0442,-0.0446,-0.0482,-0.0503,-0.0464,-0.0465,-0.0553,-0.0555,-0.0558,-0.0587,0,0,0,0,0,0,-0.0345,-0.0346,-0.035,-0.0362,-0.0366,-0.0385,-0.0385,-0.039,-0.0407,-0.041,-0.0435,-0.0437,-0.0442,-0.048,-0.0484,-0.0504,-0.0466,-0.0551,-0.0554,-0.0557,-0.0584,-0.059,-0.0595,0,0,0,0,0,-0.0344,-0.0345,-0.035,-0.0351,-0.0368,-0.0385,-0.039,-0.0404,-0.0408,-0.0423,-0.0447,-0.0437,-0.0501,-0.0482,-0.0487,-0.0508,-0.055,-0.0553,-0.0557,-0.0581,-0.0588,-0.0594,0,0,0,0,0,0,-0.0342,-0.0348,-0.0353,-0.0356,-0.0373,-0.0389,-0.0401,-0.041,-0.0441,-0.0449,-0.0456,-0.0462,-0.0505,-0.0504,-0.0484,-0.0545,-0.0524,-0.0528,-0.0541,-0.0548,-0.0553,-0.0533,-0.0468,0,0,0,0,0,-0.0342,-0.0347,-0.0358,-0.0364,-0.0371,-0.039,-0.04,-0.0414,-0.0436,-0.045,-0.0467,-0.0491,-0.0522,-0.0532,-0.0559,-0.0586,-0.0577,-0.0604,-0.0609,-0.0614,-0.0603,-0.0616,-0.0621,-0.057,-0.057,-0.057,0,0,-0.034,-0.0347,-0.0348,-0.0364,-0.038,-0.0397,-0.0398,-0.0421,-0.0441,-0.0449,-0.0488,-0.0515,-0.0537,-0.0577,-0.0594,-0.0576,-0.0628,-0.0618,-0.0622,-0.0608,-0.062,-0.0625,-0.0629,-0.0572,-0.0572,-0.0571,0,0,-0.0346,-0.035,-0.0361,-0.0375,-0.0399,-0.0411,-0.0419,-0.0446,-0.0464,-0.0502,-0.0522,-0.0555,-0.0594,-0.0614,-0.0628,-0.0676,-0.0663,-0.0694,-0.0695,-0.0709,-0.0713,-0.0716,-0.0719,-0.0722,-0.0687,-0.0687,-0.0687,0,-0.0348,-0.0361,-0.0368,-0.0387,-0.0399,-0.0418,-0.0438,-0.046,-0.0497,-0.0514,-0.0518,-0.059,-0.0608,-0.0652,-0.0673,-0.0686,-0.069,-0.0666,-0.0714,-0.0717,-0.072,-0.0722,-0.0724,-0.0689,-0.0689,-0.0689,-0.0688,0,-0.0366,-0.0378,-0.0388,-0.0416,-0.0431,-0.0453,-0.0475,-0.0502,-0.0524,-0.0543,-0.0596,-0.0626,-0.0661,-0.0682,-0.0691,-0.0728,-0.0725,-0.0725,-0.0691,-0.0726,-0.0727,-0.0729,-0.0692,-0.0691,-0.069,-0.069,0,0,-0.037,-0.0395,-0.0402,-0.0415,-0.0449,-0.0463,-0.0497,-0.053,-0.0551,-0.0591,-0.0618,-0.0676,-0.0689,-0.0705,-0.0727,-0.0736,-0.0764,-0.0738,-0.0738,-0.0729,-0.0793,-0.0751,-0.0749,-0.0777,-0.0777,-0.0778,-0.0788,0,-0.0389,-0.0417,-0.0429,-0.046,-0.0475,-0.0497,-0.0522,-0.0555,-0.0583,-0.0614,-0.0647,-0.0686,-0.0699,-0.072,-0.0736,-0.0761,-0.0771,-0.0761,-0.077,-0.0769,-0.0718,-0.0751,-0.0779,-0.0789,-0.079,-0.079,-0.079,0,-0.0408,-0.0424,-0.0451,-0.0476,-0.0486,-0.0508,-0.0546,-0.0572,-0.0614,-0.0634,-0.0671,-0.0696,-0.0731,-0.0731,-0.0772,-0.0768,-0.0781,-0.0791,-0.0791,-0.0738,-0.0732,-0.0747,-0.0794,-0.0794,-0.0794,-0.0793,-0.0793,0,-0.0405,-0.044,-0.0459,-0.0469,-0.0501,-0.0521,-0.0544,-0.0583,-0.0599,-0.0647,-0.0657,-0.0707,-0.0724,-0.0755,-0.0777,-0.0781,-0.0807,-0.0813,-0.0786,-0.0783,-0.0802,-0.0798,-0.0834,-0.0834,-0.0834,-0.0834,-0.0834,0,-0.0411,-0.043,-0.046,-0.0469,-0.0493,-0.052,-0.0548,-0.0576,-0.0608,-0.062,-0.0666,-0.0674,-0.073,-0.0752,-0.0777,-0.0783,-0.0808,-0.0784,-0.0783,-0.0816,-0.0814,-0.0803,-0.08,-0.0834,-0.0834,-0.0834,-0.0834,0,-0.04,-0.042,-0.044,-0.0476,-0.0489,-0.0507,-0.0539,-0.0555,-0.0588,-0.0602,-0.0614,-0.0653,-0.0677,-0.0721,-0.0761,-0.0769,-0.0788,-0.0784,-0.0808,-0.0809,-0.0755,-0.0754,-0.0756,-0.0755,-0.0754,-0.0753,-0.0752,0,-0.0392,-0.0403,-0.0438,-0.0447,-0.0464,-0.0492,-0.0506,-0.0542,-0.0551,-0.0578,-0.0577,-0.0607,-0.0631,-0.0648,-0.0706,-0.0749,-0.0751,-0.0761,-0.0766,-0.0749,-0.0748,-0.0748,-0.0748,-0.075,-0.075,-0.0749,-0.0749,0,-0.0378,-0.0395,-0.0408,-0.0426,-0.0442,-0.0458,-0.0481,-0.048,-0.0511,-0.0535,-0.0525,-0.0548,-0.0568,-0.0612,-0.0646,-0.068,-0.0758,-0.0749,-0.0752,-0.0757,-0.0741,-0.0742,-0.0743,-0.0745,-0.0746,-0.0746,-0.0746,0,-0.0367,-0.0369,-0.0388,-0.0401,-0.0418,-0.0426,-0.044,-0.0444,-0.0453,-0.0477,-0.0469,-0.0505,-0.0538,-0.0575,-0.0609,-0.0637,-0.0644,-0.065,-0.0658,-0.0663,-0.0635,-0.0601,-0.0559,0,0,0,0,0,-0.0356,-0.0356,-0.0363,-0.0376,-0.0392,-0.0405,-0.0423,-0.0435,-0.0454,-0.043,-0.0448,-0.0462,-0.05,-0.0529,-0.0545,-0.0601,-0.0664,-0.0622,-0.0678,-0.0723,-0.0727,-0.0706,0,0,0,0,0,0,-0.0348,-0.0354,-0.0353,-0.0354,-0.0361,-0.0376,-0.0387,-0.04,-0.039,-0.0407,-0.0425,-0.0449,-0.0492,-0.048,-0.0537,-0.0551,-0.0584,-0.0652,-0.0652,-0.072,-0.0724,-0.0728,-0.0708,0,0,0,0,0]}]]